Year,Month,Day,Hour,Minute,Value (Times are PST for temperature in C)
2018,05,23,03,06,10.40
2018,05,23,03,07,10.40
2018,05,23,03,08,10.40
2018,05,23,03,09,10.40
2018,05,23,03,10,10.40
2018,05,23,03,11,10.40
2018,05,23,03,12,10.30
2018,05,23,03,13,10.30
2018,05,23,03,14,10.30
2018,05,23,03,15,10.30
2018,05,23,03,16,10.30
2018,05,23,03,17,10.30
2018,05,23,03,18,10.20
2018,05,23,03,19,10.20
2018,05,23,03,20,10.20
2018,05,23,03,21,10.20
2018,05,23,03,22,10.20
2018,05,23,03,23,10.20
2018,05,23,03,24,10.20
2018,05,23,03,25,10.20
2018,05,23,03,26,10.20
2018,05,23,03,27,10.20
2018,05,23,03,28,10.20
2018,05,23,03,29,10.20
2018,05,23,03,30,10.20
2018,05,23,03,31,10.20
2018,05,23,03,32,10.20
2018,05,23,03,33,10.20
2018,05,23,03,34,10.10
2018,05,23,03,35,10.10
2018,05,23,03,36,10.10
2018,05,23,03,37,10.10
2018,05,23,03,38,10.10
2018,05,23,03,39,10.10
2018,05,23,03,40,10.10
2018,05,23,03,41,10.10
2018,05,23,03,42,10.10
2018,05,23,03,43,10.10
2018,05,23,03,44,10.10
2018,05,23,03,45,10.10
2018,05,23,03,46,10.10
2018,05,23,03,47,10.10
2018,05,23,03,48,10.10
2018,05,23,03,49,10.10
2018,05,23,03,50,10.10
2018,05,23,03,51,10.10
2018,05,23,03,52,10.10
2018,05,23,03,53,10.10
2018,05,23,03,54,10.00
2018,05,23,03,55,10.00
2018,05,23,03,56,10.00
2018,05,23,03,57,10.10
2018,05,23,03,58,10.10
2018,05,23,03,59,10.10
2018,05,23,04,00,10.10
2018,05,23,04,01,10.10
2018,05,23,04,02,10.10
2018,05,23,04,03,10.10
2018,05,23,04,04,10.10
2018,05,23,04,05,10.10
2018,05,23,04,06,10.10
2018,05,23,04,07,10.10
2018,05,23,04,08,10.10
2018,05,23,04,09,10.00
2018,05,23,04,10,10.00
2018,05,23,04,11,10.00
2018,05,23,04,12,10.00
2018,05,23,04,13,10.00
2018,05,23,04,14,10.00
2018,05,23,04,15,9.90
2018,05,23,04,16,9.90
2018,05,23,04,17,9.90
2018,05,23,04,18,9.90
2018,05,23,04,19,9.90
2018,05,23,04,20,9.90
2018,05,23,04,21,10.00
2018,05,23,04,22,10.00
2018,05,23,04,23,10.00
2018,05,23,04,24,10.00
2018,05,23,04,25,10.00
2018,05,23,04,26,10.00
2018,05,23,04,27,10.00
2018,05,23,04,28,10.00
2018,05,23,04,29,10.00
2018,05,23,04,30,9.90
2018,05,23,04,31,9.90
2018,05,23,04,32,9.90
2018,05,23,04,33,9.90
2018,05,23,04,34,9.90
2018,05,23,04,35,9.90
2018,05,23,04,36,9.90
2018,05,23,04,37,9.90
2018,05,23,04,38,10.00
2018,05,23,04,39,10.00
2018,05,23,04,40,10.00
2018,05,23,04,41,10.00
2018,05,23,04,42,10.00
2018,05,23,04,43,10.10
2018,05,23,04,44,10.10
2018,05,23,04,45,10.10
2018,05,23,04,46,10.10
2018,05,23,04,47,10.10
2018,05,23,04,48,10.10
2018,05,23,04,49,10.10
2018,05,23,04,50,10.10
2018,05,23,04,51,10.10
2018,05,23,04,52,10.10
2018,05,23,04,53,10.10
2018,05,23,04,54,10.10
2018,05,23,04,55,10.10
2018,05,23,04,56,10.10
2018,05,23,04,57,10.10
2018,05,23,04,58,10.10
2018,05,23,04,59,10.10
2018,05,23,05,00,10.10
2018,05,23,05,01,10.10
2018,05,23,05,02,10.10
2018,05,23,05,03,10.10
2018,05,23,05,04,10.10
2018,05,23,05,05,10.10
2018,05,23,05,06,10.10
2018,05,23,05,07,10.10
2018,05,23,05,08,10.10
2018,05,23,05,09,10.20
2018,05,23,05,10,10.20
2018,05,23,05,11,10.20
2018,05,23,05,12,10.20
2018,05,23,05,13,10.20
2018,05,23,05,14,10.20
2018,05,23,05,15,10.20
2018,05,23,05,16,10.20
2018,05,23,05,17,10.20
2018,05,23,05,18,10.20
2018,05,23,05,19,10.10
2018,05,23,05,20,10.20
2018,05,23,05,21,10.20
2018,05,23,05,22,10.10
2018,05,23,05,23,10.20
2018,05,23,05,24,10.20
2018,05,23,05,25,10.20
2018,05,23,05,26,10.20
2018,05,23,05,27,10.20
2018,05,23,05,28,10.20
2018,05,23,05,29,10.20
2018,05,23,05,30,10.20
2018,05,23,05,31,10.20
2018,05,23,05,32,10.30
2018,05,23,05,33,10.30
2018,05,23,05,34,10.30
2018,05,23,05,35,10.30
2018,05,23,05,36,10.30
2018,05,23,05,37,10.30
2018,05,23,05,38,10.30
2018,05,23,05,39,10.30
2018,05,23,05,40,10.30
2018,05,23,05,41,10.30
2018,05,23,05,42,10.30
2018,05,23,05,43,10.30
2018,05,23,05,44,10.30
2018,05,23,05,45,10.40
2018,05,23,05,46,10.40
2018,05,23,05,47,10.40
2018,05,23,05,48,10.40
2018,05,23,05,49,10.40
2018,05,23,05,50,10.50
2018,05,23,05,51,10.50
2018,05,23,05,52,10.50
2018,05,23,05,53,10.50
2018,05,23,05,54,10.60
2018,05,23,05,55,10.60
2018,05,23,05,56,10.60
2018,05,23,05,57,10.60
2018,05,23,05,58,10.60
2018,05,23,05,59,10.60
2018,05,23,06,00,10.60
2018,05,23,06,01,10.60
2018,05,23,06,02,10.60
2018,05,23,06,03,10.60
2018,05,23,06,04,10.60
2018,05,23,06,05,10.60
2018,05,23,06,06,10.60
2018,05,23,06,07,10.60
2018,05,23,06,08,10.70
2018,05,23,06,09,10.70
2018,05,23,06,10,10.70
2018,05,23,06,11,10.70
2018,05,23,06,12,10.70
2018,05,23,06,13,10.70
2018,05,23,06,14,10.70
2018,05,23,06,15,10.70
2018,05,23,06,16,10.70
2018,05,23,06,17,10.70
2018,05,23,06,18,10.70
2018,05,23,06,19,10.70
2018,05,23,06,20,10.70
2018,05,23,06,21,10.70
2018,05,23,06,22,10.70
2018,05,23,06,23,10.70
2018,05,23,06,24,10.70
2018,05,23,06,25,10.70
2018,05,23,06,26,10.70
2018,05,23,06,27,10.70
2018,05,23,06,28,10.70
2018,05,23,06,29,10.70
2018,05,23,06,30,10.70
2018,05,23,06,31,10.70
2018,05,23,06,32,10.70
2018,05,23,06,33,10.70
2018,05,23,06,34,10.70
2018,05,23,06,35,10.70
2018,05,23,06,36,10.70
2018,05,23,06,37,10.70
2018,05,23,06,38,10.70
2018,05,23,06,39,10.70
2018,05,23,06,40,10.70
2018,05,23,06,41,10.70
2018,05,23,06,42,10.70
2018,05,23,06,43,10.70
2018,05,23,06,44,10.70
2018,05,23,06,45,10.70
2018,05,23,06,46,10.70
2018,05,23,06,47,10.70
2018,05,23,06,48,10.70
2018,05,23,06,49,10.70
2018,05,23,06,50,10.70
2018,05,23,06,51,10.70
2018,05,23,06,52,10.70
2018,05,23,06,53,10.70
2018,05,23,06,54,10.70
2018,05,23,06,55,10.70
2018,05,23,06,56,10.70
2018,05,23,06,57,10.70
2018,05,23,06,58,10.70
2018,05,23,06,59,10.70
2018,05,23,07,00,10.70
2018,05,23,07,01,10.70
2018,05,23,07,02,10.70
2018,05,23,07,03,10.70
2018,05,23,07,04,10.70
2018,05,23,07,05,10.70
2018,05,23,07,06,10.70
2018,05,23,07,07,10.70
2018,05,23,07,08,10.70
2018,05,23,07,09,10.70
2018,05,23,07,10,10.70
2018,05,23,07,11,10.70
2018,05,23,07,12,10.70
2018,05,23,07,13,10.70
2018,05,23,07,14,10.80
2018,05,23,07,15,10.80
2018,05,23,07,16,10.80
2018,05,23,07,17,10.80
2018,05,23,07,18,10.80
2018,05,23,07,19,10.80
2018,05,23,07,20,10.80
2018,05,23,07,21,10.80
2018,05,23,07,22,10.80
2018,05,23,07,23,10.80
2018,05,23,07,24,10.80
2018,05,23,07,25,10.80
2018,05,23,07,26,10.80
2018,05,23,07,27,10.80
2018,05,23,07,28,10.80
2018,05,23,07,29,10.80
2018,05,23,07,30,10.80
2018,05,23,07,31,10.80
2018,05,23,07,32,10.80
2018,05,23,07,33,10.80
2018,05,23,07,34,10.80
2018,05,23,07,35,10.80
2018,05,23,07,36,10.80
2018,05,23,07,37,10.80
2018,05,23,07,38,10.80
2018,05,23,07,39,10.80
2018,05,23,07,40,10.80
2018,05,23,07,41,10.80
2018,05,23,07,42,10.80
2018,05,23,07,43,10.80
2018,05,23,07,44,10.80
2018,05,23,07,45,10.90
2018,05,23,07,46,10.90
2018,05,23,07,47,11.00
2018,05,23,07,48,11.00
2018,05,23,07,49,11.00
2018,05,23,07,50,11.00
2018,05,23,07,51,11.00
2018,05,23,07,52,11.00
2018,05,23,07,53,11.00
2018,05,23,07,54,11.00
2018,05,23,07,55,11.00
2018,05,23,07,56,10.90
2018,05,23,07,57,10.90
2018,05,23,07,58,10.90
2018,05,23,07,59,10.90
2018,05,23,08,00,10.90
2018,05,23,08,01,10.90
2018,05,23,08,02,10.90
2018,05,23,08,03,10.90
2018,05,23,08,04,10.90
2018,05,23,08,05,11.00
2018,05,23,08,06,11.00
2018,05,23,08,07,11.10
2018,05,23,08,08,11.10
2018,05,23,08,09,11.10
2018,05,23,08,10,11.10
2018,05,23,08,11,11.20
2018,05,23,08,12,11.20
2018,05,23,08,13,11.30
2018,05,23,08,14,11.30
2018,05,23,08,15,11.30
2018,05,23,08,16,11.30
2018,05,23,08,17,11.30
2018,05,23,08,18,11.30
2018,05,23,08,19,11.30
2018,05,23,08,20,11.30
2018,05,23,08,21,11.30
2018,05,23,08,22,11.30
2018,05,23,08,23,11.30
2018,05,23,08,24,11.40
2018,05,23,08,25,11.40
2018,05,23,08,26,11.30
2018,05,23,08,27,11.20
2018,05,23,08,28,11.20
2018,05,23,08,29,11.20
2018,05,23,08,30,11.20
2018,05,23,08,31,11.20
2018,05,23,08,32,11.20
2018,05,23,08,33,11.20
2018,05,23,08,34,11.10
2018,05,23,08,35,11.10
2018,05,23,08,36,11.10
2018,05,23,08,37,11.10
2018,05,23,08,38,11.20
2018,05,23,08,39,11.20
2018,05,23,08,40,11.20
2018,05,23,08,41,11.20
2018,05,23,08,42,11.20
2018,05,23,08,43,11.20
2018,05,23,08,44,11.20
2018,05,23,08,45,11.20
2018,05,23,08,46,11.20
2018,05,23,08,47,11.20
2018,05,23,08,48,11.20
2018,05,23,08,49,11.20
2018,05,23,08,50,11.20
2018,05,23,08,51,11.30
2018,05,23,08,52,11.30
2018,05,23,08,53,11.40
2018,05,23,08,54,11.40
2018,05,23,08,55,11.40
2018,05,23,08,56,11.40
2018,05,23,08,57,11.50
2018,05,23,08,58,11.50
2018,05,23,08,59,11.50
2018,05,23,09,00,11.50
2018,05,23,09,01,11.60
2018,05,23,09,02,11.60
2018,05,23,09,03,11.70
2018,05,23,09,04,11.80
2018,05,23,09,05,11.80
2018,05,23,09,06,11.80
2018,05,23,09,07,11.90
2018,05,23,09,08,12.00
2018,05,23,09,09,12.00
2018,05,23,09,10,12.10
2018,05,23,09,11,12.10
2018,05,23,09,12,12.20
2018,05,23,09,13,12.20
2018,05,23,09,14,12.20
2018,05,23,09,15,12.30
2018,05,23,09,16,12.30
2018,05,23,09,17,12.40
2018,05,23,09,18,12.40
2018,05,23,09,19,12.50
2018,05,23,09,20,12.60
2018,05,23,09,21,12.60
2018,05,23,09,22,12.70
2018,05,23,09,23,12.70
2018,05,23,09,24,12.80
2018,05,23,09,25,12.80
2018,05,23,09,26,12.80
2018,05,23,09,27,12.80
2018,05,23,09,28,12.90
2018,05,23,09,29,12.90
2018,05,23,09,30,13.00
2018,05,23,09,31,13.00
2018,05,23,09,32,13.10
2018,05,23,09,33,13.10
2018,05,23,09,34,13.20
2018,05,23,09,35,13.20
2018,05,23,09,36,13.30
2018,05,23,09,37,13.30
2018,05,23,09,38,13.30
2018,05,23,09,39,13.30
2018,05,23,09,40,13.40
2018,05,23,09,41,13.40
2018,05,23,09,42,13.50
2018,05,23,09,43,13.60
2018,05,23,09,44,13.70
2018,05,23,09,45,13.70
2018,05,23,09,46,13.80
2018,05,23,09,47,13.80
2018,05,23,09,48,13.80
2018,05,23,09,49,14.00
2018,05,23,09,50,14.00
2018,05,23,09,51,14.10
2018,05,23,09,52,14.20
2018,05,23,09,53,14.20
2018,05,23,09,54,14.30
2018,05,23,09,55,14.30
2018,05,23,09,56,14.40
2018,05,23,09,57,14.50
2018,05,23,09,58,14.50
2018,05,23,09,59,14.60
2018,05,23,10,00,14.60
2018,05,23,10,01,14.70
2018,05,23,10,02,14.80
2018,05,23,10,03,14.80
2018,05,23,10,04,14.90
2018,05,23,10,05,14.90
2018,05,23,10,06,15.00
2018,05,23,10,07,15.00
2018,05,23,10,08,15.00
2018,05,23,10,09,15.00
2018,05,23,10,10,15.00
2018,05,23,10,11,15.00
2018,05,23,10,12,15.00
2018,05,23,10,13,15.00
2018,05,23,10,14,15.00
2018,05,23,10,15,15.00
2018,05,23,10,16,15.00
2018,05,23,10,17,15.00
2018,05,23,10,18,15.00
2018,05,23,10,19,15.10
2018,05,23,10,20,15.10
2018,05,23,10,21,15.10
2018,05,23,10,22,15.10
2018,05,23,10,23,15.20
2018,05,23,10,24,15.20
2018,05,23,10,25,15.20
2018,05,23,10,26,15.20
2018,05,23,10,27,15.30
2018,05,23,10,28,15.30
2018,05,23,10,29,15.30
2018,05,23,10,30,15.30
2018,05,23,10,31,15.30
2018,05,23,10,32,15.30
2018,05,23,10,33,15.30
2018,05,23,10,34,15.30
2018,05,23,10,35,15.30
2018,05,23,10,36,15.30
2018,05,23,10,37,15.30
2018,05,23,10,38,15.30
2018,05,23,10,39,15.30
2018,05,23,10,40,15.30
2018,05,23,10,41,15.30
2018,05,23,10,42,15.40
2018,05,23,10,43,15.40
2018,05,23,10,44,15.30
2018,05,23,10,45,15.30
2018,05,23,10,46,15.30
2018,05,23,10,47,15.30
2018,05,23,10,48,15.30
2018,05,23,10,49,15.20
2018,05,23,10,50,15.20
2018,05,23,10,51,15.20
2018,05,23,10,52,15.20
2018,05,23,10,53,15.20
2018,05,23,10,54,15.30
2018,05,23,10,55,15.30
2018,05,23,10,56,15.30
2018,05,23,10,57,15.30
2018,05,23,10,58,15.40
2018,05,23,10,59,15.30
2018,05,23,11,00,15.30
2018,05,23,11,01,15.30
2018,05,23,11,02,15.30
2018,05,23,11,03,15.20
2018,05,23,11,04,15.20
2018,05,23,11,05,15.20
2018,05,23,11,06,15.20
2018,05,23,11,07,15.20
2018,05,23,11,08,15.30
2018,05,23,11,09,15.40
2018,05,23,11,10,15.40
2018,05,23,11,11,15.40
2018,05,23,11,12,15.50
2018,05,23,11,13,15.50
2018,05,23,11,14,15.50
2018,05,23,11,15,15.50
2018,05,23,11,16,15.50
2018,05,23,11,17,15.40
2018,05,23,11,18,15.40
2018,05,23,11,19,15.40
2018,05,23,11,20,15.40
2018,05,23,11,21,15.50
2018,05,23,11,22,15.50
2018,05,23,11,23,15.60
2018,05,23,11,24,15.60
2018,05,23,11,25,15.60
2018,05,23,11,26,15.60
2018,05,23,11,27,15.70
2018,05,23,11,28,15.70
2018,05,23,11,29,15.70
2018,05,23,11,30,15.70
2018,05,23,11,31,15.70
2018,05,23,11,32,15.70
2018,05,23,11,33,15.70
2018,05,23,11,34,15.70
2018,05,23,11,35,15.60
2018,05,23,11,36,15.60
2018,05,23,11,37,15.60
2018,05,23,11,38,15.70
2018,05,23,11,39,15.70
2018,05,23,11,40,15.70
2018,05,23,11,41,15.70
2018,05,23,11,42,15.70
2018,05,23,11,43,15.70
2018,05,23,11,44,15.70
2018,05,23,11,45,15.70
2018,05,23,11,46,15.70
2018,05,23,11,47,15.90
2018,05,23,11,48,15.90
2018,05,23,11,49,15.90
2018,05,23,11,50,16.00
2018,05,23,11,51,16.10
2018,05,23,11,52,16.10
2018,05,23,11,53,16.10
2018,05,23,11,54,16.10
2018,05,23,11,55,16.10
2018,05,23,11,56,16.00
2018,05,23,11,57,16.00
2018,05,23,11,58,16.00
2018,05,23,11,59,16.00
2018,05,23,12,00,15.90
2018,05,23,12,01,15.80
2018,05,23,12,02,15.80
2018,05,23,12,03,15.90
2018,05,23,12,04,15.90
2018,05,23,12,05,15.80
2018,05,23,12,06,15.80
2018,05,23,12,07,15.70
2018,05,23,12,08,15.70
2018,05,23,12,09,15.70
2018,05,23,12,10,15.80
2018,05,23,12,11,15.90
2018,05,23,12,12,15.90
2018,05,23,12,13,15.90
2018,05,23,12,14,15.90
2018,05,23,12,15,15.90
2018,05,23,12,16,15.90
2018,05,23,12,17,15.90
2018,05,23,12,18,15.90
2018,05,23,12,19,15.90
2018,05,23,12,20,15.90
2018,05,23,12,21,15.90
2018,05,23,12,22,15.90
2018,05,23,16,21,14.80
2018,05,23,16,22,14.80
2018,05,23,16,23,14.80
2018,05,23,16,24,14.80
2018,05,23,16,25,14.70
2018,05,23,16,26,14.70
2018,05,23,16,27,14.70
2018,05,23,16,28,14.70
2018,05,23,16,29,14.70
2018,05,23,16,30,14.70
2018,05,23,16,31,14.70
2018,05,23,16,32,14.70
2018,05,23,16,33,14.70
2018,05,23,16,34,14.70
2018,05,23,16,35,14.70
2018,05,23,16,36,14.60
2018,05,23,16,37,14.60
2018,05,23,16,38,14.60
2018,05,23,16,39,14.60
2018,05,23,16,40,14.60
2018,05,23,16,41,14.50
2018,05,23,16,42,14.60
2018,05,23,16,43,14.50
2018,05,23,16,44,14.50
2018,05,23,16,45,14.50
2018,05,23,16,46,14.40
2018,05,23,16,47,14.30
2018,05,23,16,48,14.40
2018,05,23,16,49,14.40
2018,05,23,16,50,14.40
2018,05,23,16,51,14.30
2018,05,23,16,52,14.30
2018,05,23,16,53,14.30
2018,05,23,16,54,14.40
2018,05,23,16,55,14.40
2018,05,23,16,56,14.40
2018,05,23,16,57,14.40
2018,05,23,16,58,14.40
2018,05,23,16,59,14.40
2018,05,23,17,00,14.30
2018,05,23,17,01,14.30
2018,05,23,17,02,14.30
2018,05,23,17,03,14.30
2018,05,23,17,04,14.40
2018,05,23,17,05,14.40
2018,05,23,17,06,14.40
2018,05,23,17,07,14.40
2018,05,23,17,08,14.40
2018,05,23,17,09,14.50
2018,05,23,17,10,14.50
2018,05,23,17,11,14.60
2018,05,23,17,12,14.60
2018,05,23,17,13,14.60
2018,05,23,17,14,14.60
2018,05,23,17,15,14.60
2018,05,23,17,16,14.60
2018,05,23,17,17,14.60
2018,05,23,17,18,14.70
2018,05,23,17,19,14.80
2018,05,23,17,20,14.80
2018,05,23,17,21,14.90
2018,05,23,17,22,15.00
2018,05,23,17,23,15.00
2018,05,23,17,24,15.00
2018,05,23,17,25,15.00
2018,05,23,17,26,15.00
2018,05,23,17,27,15.00
2018,05,23,17,28,15.00
2018,05,23,17,29,14.90
2018,05,23,17,30,14.90
2018,05,23,17,31,14.90
2018,05,23,17,32,15.00
2018,05,23,17,33,15.00
2018,05,23,17,34,15.00
2018,05,23,17,35,15.00
2018,05,23,17,36,14.90
2018,05,23,17,37,14.90
2018,05,23,17,38,14.90
2018,05,23,17,39,14.90
2018,05,23,17,40,15.00
2018,05,23,17,41,15.00
2018,05,23,17,42,14.90
2018,05,23,17,43,14.80
2018,05,23,17,44,14.70
2018,05,23,17,45,14.70
2018,05,23,17,46,14.70
2018,05,23,17,47,14.80
2018,05,23,17,48,14.80
2018,05,23,17,49,14.80
2018,05,23,17,50,14.80
2018,05,23,17,51,14.80
2018,05,23,17,52,14.70
2018,05,23,17,53,14.60
2018,05,23,17,54,14.60
2018,05,23,17,55,14.60
2018,05,23,17,56,14.50
2018,05,23,17,57,14.50
2018,05,23,17,58,14.50
2018,05,23,17,59,14.50
2018,05,23,18,00,14.50
2018,05,23,18,01,14.50
2018,05,23,18,02,14.40
2018,05,23,18,03,14.40
2018,05,23,18,04,14.40
2018,05,23,18,05,14.40
2018,05,23,18,06,14.40
2018,05,23,18,07,14.50
2018,05,23,18,08,14.50
2018,05,23,18,09,14.60
2018,05,23,18,10,14.50
2018,05,23,18,11,14.60
2018,05,23,18,12,14.60
2018,05,23,18,13,14.60
2018,05,23,18,14,14.60
2018,05,23,18,15,14.70
2018,05,23,18,16,14.70
2018,05,23,18,17,14.70
2018,05,23,18,18,14.70
2018,05,23,18,19,14.70
2018,05,23,18,20,14.70
2018,05,23,18,21,14.70
2018,05,23,18,22,14.80
2018,05,23,18,23,14.80
2018,05,23,18,24,14.80
2018,05,23,18,25,14.70
2018,05,23,18,26,14.60
2018,05,23,18,27,14.60
2018,05,23,18,28,14.60
2018,05,23,18,29,14.60
2018,05,23,18,30,14.60
2018,05,23,18,31,14.50
2018,05,23,18,32,14.50
2018,05,23,18,33,14.60
2018,05,23,18,34,14.60
2018,05,23,18,35,14.50
2018,05,23,18,36,14.50
2018,05,23,18,37,14.50
2018,05,23,18,38,14.50
2018,05,23,18,39,14.60
2018,05,23,18,40,14.50
2018,05,23,18,41,14.40
2018,05,23,18,42,14.40
2018,05,23,18,43,14.40
2018,05,23,18,44,14.30
2018,05,23,18,45,14.30
2018,05,23,18,46,14.30
2018,05,23,18,47,14.40
2018,05,23,18,48,14.40
2018,05,23,18,49,14.40
2018,05,23,18,50,14.40
2018,05,23,18,51,14.40
2018,05,23,18,52,14.40
2018,05,23,18,53,14.30
2018,05,23,18,54,14.30
2018,05,23,18,55,14.40
2018,05,23,18,56,14.40
2018,05,23,18,57,14.30
2018,05,23,18,58,14.30
2018,05,23,18,59,14.30
2018,05,23,19,00,14.30
2018,05,23,19,01,14.40
2018,05,23,19,02,14.40
2018,05,23,19,03,14.40
2018,05,23,19,04,14.40
2018,05,23,19,05,14.30
2018,05,23,19,06,14.30
2018,05,23,19,07,14.30
2018,05,23,19,08,14.30
2018,05,23,19,09,14.30
2018,05,23,19,10,14.30
2018,05,23,19,11,14.20
2018,05,23,19,12,14.20
2018,05,23,19,13,14.20
2018,05,23,19,14,14.20
2018,05,23,19,15,14.20
2018,05,23,19,16,14.20
2018,05,23,19,17,14.20
2018,05,23,19,18,14.20
2018,05,23,19,19,14.10
2018,05,23,19,20,14.10
2018,05,23,19,21,14.10
2018,05,23,19,22,14.10
2018,05,23,19,23,14.10
2018,05,23,19,24,14.10
2018,05,23,19,25,14.00
2018,05,23,19,26,14.00
2018,05,23,19,27,14.00
2018,05,23,19,28,14.00
2018,05,23,19,29,14.10
2018,05,23,19,30,14.10
2018,05,23,19,31,14.10
2018,05,23,19,32,14.00
2018,05,23,19,33,14.00
2018,05,23,19,34,14.00
2018,05,23,19,35,14.00
2018,05,23,19,36,13.90
2018,05,23,19,37,13.90
2018,05,23,19,38,13.90
2018,05,23,19,39,13.90
2018,05,23,19,40,13.80
2018,05,23,19,41,13.80
2018,05,23,19,42,13.80
2018,05,23,19,43,13.80
2018,05,23,19,44,13.80
2018,05,23,19,45,13.80
2018,05,23,19,46,13.80
2018,05,23,19,47,13.70
2018,05,23,19,48,13.70
2018,05,23,19,49,13.70
2018,05,23,19,50,13.60
2018,05,23,19,51,13.60
2018,05,23,19,52,13.60
2018,05,23,19,53,13.60
2018,05,23,19,54,13.50
2018,05,23,19,55,13.50
2018,05,23,19,56,13.50
2018,05,23,19,57,13.40
2018,05,23,19,58,13.40
2018,05,23,19,59,13.30
2018,05,23,20,00,13.30
2018,05,23,20,01,13.30
2018,05,23,20,02,13.20
2018,05,23,20,03,13.20
2018,05,23,20,04,13.20
2018,05,23,20,05,13.20
2018,05,23,20,06,13.10
2018,05,23,20,07,13.10
2018,05,23,20,08,13.10
2018,05,23,20,09,13.10
2018,05,23,20,10,13.00
2018,05,23,20,11,13.00
2018,05,23,20,12,13.00
2018,05,23,20,13,12.90
2018,05,23,20,14,12.90
2018,05,23,20,15,12.90
2018,05,23,20,16,12.90
2018,05,23,20,17,12.90
2018,05,23,20,18,12.90
2018,05,23,20,19,13.00
2018,05,23,20,20,13.00
2018,05,23,20,21,13.00
2018,05,23,20,22,13.00
2018,05,23,20,23,13.00
2018,05,23,20,24,13.00
2018,05,23,20,25,13.00
2018,05,23,20,26,13.00
2018,05,23,20,27,13.00
2018,05,23,20,28,13.00
2018,05,23,20,29,12.90
2018,05,23,20,30,12.90
2018,05,23,20,31,12.90
2018,05,23,20,32,12.90
2018,05,23,20,33,12.90
2018,05,23,20,34,12.90
2018,05,23,20,35,12.90
2018,05,23,20,36,12.90
2018,05,23,20,37,12.90
2018,05,23,20,38,12.90
2018,05,23,20,39,12.90
2018,05,23,20,40,12.90
2018,05,23,20,41,12.90
2018,05,23,20,42,12.90
2018,05,23,20,43,12.90
2018,05,23,20,44,12.80
2018,05,23,20,45,12.80
2018,05,23,20,46,12.80
2018,05,23,20,47,12.80
2018,05,23,20,48,12.80
2018,05,23,20,49,12.80
2018,05,23,20,50,12.80
2018,05,23,20,51,12.80
2018,05,23,20,52,12.80
2018,05,23,20,53,12.80
2018,05,23,20,54,12.80
2018,05,23,20,55,12.80
2018,05,23,20,56,12.80
2018,05,23,20,57,12.70
2018,05,23,20,58,12.70
2018,05,23,20,59,12.70
2018,05,23,21,00,12.70
2018,05,23,21,01,12.70
2018,05,23,21,02,12.70
2018,05,23,21,03,12.70
2018,05,23,21,04,12.70
2018,05,23,21,05,12.70
2018,05,23,21,06,12.70
2018,05,23,21,07,12.70
2018,05,23,21,08,12.70
2018,05,23,21,09,12.70
2018,05,23,21,10,12.70
2018,05,23,21,11,12.70
2018,05,23,21,12,12.70
2018,05,23,21,13,12.70
2018,05,23,21,14,12.70
2018,05,23,21,15,12.70
2018,05,23,21,16,12.70
2018,05,23,21,17,12.70
2018,05,23,21,18,12.60
2018,05,23,21,19,12.60
2018,05,23,21,20,12.60
2018,05,23,21,21,12.60
2018,05,23,21,22,12.60
2018,05,23,21,23,12.60
2018,05,23,21,24,12.60
2018,05,23,21,25,12.60
2018,05,23,21,26,12.60
2018,05,23,21,27,12.50
2018,05,23,21,28,12.50
2018,05,23,21,29,12.50
2018,05,23,21,30,12.50
2018,05,23,21,31,12.50
2018,05,23,21,32,12.50
2018,05,23,21,33,12.40
2018,05,23,21,34,12.40
2018,05,23,21,35,12.40
2018,05,23,21,36,12.40
2018,05,23,21,37,12.40
2018,05,23,21,38,12.40
2018,05,23,21,39,12.40
2018,05,23,21,40,12.40
2018,05,23,21,41,12.40
2018,05,23,21,42,12.40
2018,05,23,21,43,12.40
2018,05,23,21,44,12.40
2018,05,23,21,45,12.40
2018,05,23,21,46,12.40
2018,05,23,21,47,12.40
2018,05,23,21,48,12.40
2018,05,23,21,49,12.40
2018,05,23,21,50,12.40
2018,05,23,21,51,12.40
2018,05,23,21,52,12.40
2018,05,23,21,53,12.40
2018,05,23,21,54,12.40
2018,05,23,21,55,12.40
2018,05,23,21,56,12.40
2018,05,23,21,57,12.40
2018,05,23,21,58,12.40
2018,05,23,21,59,12.40
2018,05,23,22,00,12.40
2018,05,23,22,01,12.40
2018,05,23,22,02,12.40
2018,05,23,22,03,12.50
2018,05,23,22,04,12.50
2018,05,23,22,05,12.50
2018,05,23,22,06,12.50
2018,05,23,22,07,12.50
2018,05,23,22,08,12.50
2018,05,23,22,09,12.50
2018,05,23,22,10,12.50
2018,05,23,22,11,12.50
2018,05,23,22,12,12.50
2018,05,23,22,13,12.50
2018,05,23,22,14,12.60
2018,05,23,22,15,12.60
2018,05,23,22,16,12.60
2018,05,23,22,17,12.60
2018,05,23,22,18,12.60
2018,05,23,22,19,12.60
2018,05,23,22,20,12.60
2018,05,23,22,21,12.60
2018,05,23,22,22,12.60
2018,05,23,22,23,12.60
2018,05,23,22,24,12.60
2018,05,23,22,25,12.60
2018,05,23,22,26,12.60
2018,05,23,22,27,12.60
2018,05,23,22,28,12.60
2018,05,23,22,29,12.60
2018,05,23,22,30,12.60
2018,05,23,22,31,12.60
2018,05,23,22,32,12.60
2018,05,23,22,33,12.60
2018,05,23,22,34,12.60
2018,05,23,22,35,12.60
2018,05,23,22,36,12.60
2018,05,23,22,37,12.60
2018,05,23,22,38,12.60
2018,05,23,22,39,12.50
2018,05,23,22,40,12.50
2018,05,23,22,41,12.50
2018,05,23,22,42,12.50
2018,05,23,22,43,12.50
2018,05,23,22,44,12.50
2018,05,23,22,45,12.50
2018,05,23,22,46,12.50
2018,05,23,22,47,12.50
2018,05,23,22,48,12.50
2018,05,23,22,49,12.50
2018,05,23,22,50,12.50
2018,05,23,22,51,12.60
2018,05,23,22,52,12.60
2018,05,23,22,53,12.60
2018,05,23,22,54,12.60
2018,05,23,22,55,12.60
2018,05,23,22,56,12.60
2018,05,23,22,57,12.60
2018,05,23,22,58,12.60
2018,05,23,22,59,12.60
2018,05,23,23,00,12.60
2018,05,23,23,01,12.60
2018,05,23,23,02,12.60
2018,05,23,23,03,12.60
2018,05,23,23,04,12.60
2018,05,23,23,05,12.60
2018,05,23,23,06,12.60
2018,05,23,23,07,12.60
2018,05,23,23,08,12.60
2018,05,23,23,09,12.60
2018,05,23,23,10,12.60
2018,05,23,23,11,12.60
2018,05,23,23,12,12.70
2018,05,23,23,13,12.70
2018,05,23,23,14,12.70
2018,05,23,23,15,12.70
2018,05,23,23,16,12.60
2018,05,23,23,17,12.60
2018,05,23,23,18,12.70
2018,05,23,23,19,12.70
2018,05,23,23,20,12.70
2018,05,23,23,21,12.70
2018,05,23,23,22,12.70
2018,05,23,23,23,12.60
2018,05,23,23,24,12.70
2018,05,23,23,25,12.70
2018,05,23,23,26,12.60
2018,05,23,23,27,12.70
2018,05,23,23,28,12.70
2018,05,23,23,29,12.70
2018,05,23,23,30,12.70
2018,05,23,23,31,12.70
2018,05,23,23,32,12.70
2018,05,23,23,33,12.70
2018,05,23,23,34,12.70
2018,05,23,23,35,12.70
2018,05,23,23,36,12.70
2018,05,23,23,37,12.70
2018,05,23,23,38,12.70
2018,05,23,23,39,12.70
2018,05,23,23,40,12.70
2018,05,23,23,41,12.70
2018,05,23,23,42,12.70
2018,05,23,23,43,12.70
2018,05,23,23,44,12.70
2018,05,23,23,45,12.70
2018,05,23,23,46,12.70
2018,05,23,23,47,12.70
2018,05,23,23,48,12.70
2018,05,23,23,49,12.70
2018,05,23,23,50,12.70
2018,05,23,23,51,12.70
2018,05,23,23,52,12.70
2018,05,23,23,53,12.70
2018,05,23,23,54,12.70
2018,05,23,23,55,12.70
2018,05,23,23,56,12.70
2018,05,23,23,57,12.70
2018,05,23,23,58,12.70
2018,05,23,23,59,12.70
